Flag for Germany Weather past 2 weeks in Bergkamen, North Rhine-Westphalia, Germany

Now
54 °F

Sunny.


Feels Like: 49 °F
Forecast: 50 / 65 °F
Wind: 15 mph from South

Location: Dortmund / Wickede

Current Time: Jun 2, 2015 at 7:55:36 AM

Latest Report: Jun 2, 2015 at 7:20 AM


Visibility: 10 mi

Pressure: 29.86 "Hg

Humidity: 72%

Dew point: 45 °F

Location of BergkamenLocation

Historic Weather in Bergkamen — Graph

°F

Bergkamen temperature yesterday

Maximum temperature yesterday: 63 °F (at 5:50 PM)
Minimum temperature yesterday: 48 °F (at 5:20 AM)
Average temperature yesterday: 56 °F

Past Weeks' High & Low Weather Summary

 TemperatureHumidityPressure
High68 °F (May 22, 3:50 PM)94% (May 25, 11:50 AM)30.33 "Hg (May 25, 11:50 AM)
Low41 °F (May 18, 6:20 AM)32% (May 21, 3:50 PM)29.62 "Hg (May 18, 7:20 PM)
Average55 °F62%30.00 "Hg
* Reported May 18 6:20 AM — Jun 2 6:50 AM, Bergkamen, Weather by CustomWeather, © 2015

Note: Actual official high and low records may vary slightly from our data, if they occured in-between our weather recording intervals... More about our weather records

Advertising

Bergkamen weather history for previous 24 hours

 ConditionsComfort  
Time TempWeatherWind HumidityBarometerVisibility
6:50 AM
Tue, Jun 2
54 °FSunny.15 mph72%29.83 "Hg10 mi
6:20 AM52 °FClear.15 mph77%29.86 "HgN/A
5:20 AM52 °FClear.15 mph72%29.86 "Hg10 mi
10:50 PM
Mon, Jun 1
52 °FClear.6 mph67%29.95 "Hg10 mi
10:20 PM54 °FSunny.3 mph67%29.95 "Hg10 mi
9:50 PM55 °FSunny.6 mph63%29.95 "Hg10 mi
9:20 PM55 °FSunny.6 mph59%29.95 "Hg10 mi
8:50 PM54 °FSunny.5 mph63%29.95 "Hg10 mi
8:20 PM57 °FSunny.5 mph51%29.95 "Hg10 mi
7:50 PM61 °FPassing clouds.5 mph45%29.98 "HgN/A
7:20 PM61 °FPassing clouds.7 mph39%29.98 "HgN/A
6:50 PM63 °FPassing clouds.7 mph45%29.98 "HgN/A
6:20 PM63 °FPassing clouds.8 mph42%29.98 "HgN/A
5:50 PM63 °FSunny.3 mph42%30.01 "Hg10 mi
5:20 PM61 °FSunny.8 mph45%30.01 "Hg10 mi
4:50 PM61 °FScattered clouds.6 mph48%30.01 "HgN/A
4:20 PM61 °FScattered clouds.7 mph48%30.01 "HgN/A
3:50 PM61 °FPassing clouds.6 mph48%30.04 "HgN/A
3:20 PM59 °FScattered clouds.6 mph51%30.04 "HgN/A
2:50 PM59 °FScattered clouds.5 mph55%30.04 "HgN/A
2:20 PM59 °FPartly sunny.6 mph55%30.01 "HgN/A
1:50 PM59 °FPartly sunny.7 mph55%30.04 "HgN/A
1:20 PM57 °FScattered clouds.7 mph55%30.04 "HgN/A
12:50 PM57 °FScattered clouds.8 mph59%30.04 "HgN/A
12:20 PM57 °FScattered clouds.5 mph55%30.04 "HgN/A
11:50 AM57 °FScattered clouds.2 mph63%30.04 "HgN/A
11:20 AM55 °FPartly sunny.3 mph63%30.01 "HgN/A
10:50 AM54 °FPartly sunny.3 mph58%30.01 "HgN/A
10:20 AM55 °FScattered clouds.3 mph63%30.01 "HgN/A
9:50 AM54 °FScattered clouds.6 mph67%30.01 "HgN/A
9:20 AM55 °FScattered clouds.5 mph63%30.01 "HgN/A
8:50 AM54 °FPassing clouds.5 mph67%30.01 "HgN/A
8:20 AM52 °FPassing clouds.6 mph77%30.01 "HgN/A
7:50 AM52 °FPassing clouds.6 mph77%29.98 "HgN/A
7:20 AM50 °FSunny.6 mph88%29.98 "Hg10 mi
Weather by CustomWeather, © 2015

See weather overviewHow to use our weather pages